Вернуться в каталог

CZ-6A DEB

АктивенSSO
NORAD 54312·DEBRIS·🇨🇳 China

Запущен Nov 11, 2022 с Taiyuan Satellite Launch Center

Loading…

Ближайшие Пролёты (ближайшие 24 часа)

TLE

СвежийSource: Space-Track

Эпоха: Sep 14, 2026, 15:03 UTC

1 54312U 22151BF  26257.62730980  .00001252  00000-0  49214-3 0  9996
2 54312  98.8725 309.9078 0022039 233.0570 126.8594 14.30996063199306

Отслеживайте CZ-6A DEB в реальном времени с AllMySat

Download on the App Store